Location: Haliburton Scout Reserve
(45.0900°N, 78.3200°W)
Time: 03:21:39
(UTC-04:00)

PCSat - Pass Details

Date: 27 May 2022
Orbit: 784 x 795 km, 67.1° (Epoch: 24 June)

Event Time Altitude Azimuth Distance (km) Brightness Sun altitude
Rises 01:14:56 0° 333° (NNW) 3,305 13.8 -23.6°
Reaches altitude 10° 01:17:47 10° 347° (NNW) 2,373 13.0 -23.6°
Maximum altitude 01:22:16 25° 42° (NE) 1,548 11.6 -23.6°
Drops below altitude 10° 01:26:43 10° 98° (E) 2,361 12.0 -23.5°
Enters shadow 01:28:48 - 109° (ESE) 3,033 12.5 -23.5°
